Location: Unnamed
(51.5169°N, 0.1311°W)
Time: 07:25:24
(UTC+01:00)

Vanguard 1 - Pass Details

Date: 11 August 2024
Orbit: 649 x 3825 km, 34.2° (Epoch: 16 September)

Event Time Altitude Azimuth Distance (km) Brightness Sun altitude
Rises 23:47:58 0° 228° (SW) 4,419 13.2 -21.5°
Reaches altitude 10° 23:50:48 10° 218° (SW) 3,787 12.7 -21.6°
Maximum altitude 23:59:48 33° 158° (SSE) 3,306 12.1 -22.1°
Drops below altitude 10° 00:14:20 10° 104° (ESE) 6,153 13.8 -22.7°
Sets 00:20:36 0° 97° (E) 7,563 14.4 -22.9°
